GW5170 Weather Reports


time (UTC)temp
C
wind
direction
speed
KPH
gust
KPH
rain 1hr
cm
rain 24hr
cm
rain mn
cm
humidity
%
barometer
mb
20260901083443 23 339 0.0 0.0 0.00 0.00 0.00 95 1014.6
20260901082941 23 337 1.6 1.6 0.00 0.00 0.00 95 1014.6
20260901082436 23 352 1.6 1.6 0.00 0.00 0.00 95 1014.7
20260901081931 23 352 0.0 0.0 0.00 0.00 0.00 95 1014.7
20260901081426 23 349 0.0 0.0 0.00 0.00 0.00 95 1014.7
20260901080921 23 349 0.0 0.0 0.00 0.00 0.00 94 1014.7
20260901080420 23 337 0.0 0.0 0.00 0.00 0.00 94 1014.7
20260901075916 23 326 1.6 1.6 0.00 0.00 0.00 94 1014.7
20260901075416 23 302 3.2 3.2 0.00 0.00 0.00 94 1014.9
20260901074915 23 336 0.0 0.0 0.00 0.00 0.00 94 1014.7
20260901074410 23 331 1.6 1.6 0.00 0.00 0.00 94 1014.8
20260901073906 23 345 0.0 0.0 0.00 0.00 0.00 94 1014.8
20260901073402 23 345 0.0 0.0 0.00 0.00 0.00 94 1014.8
20260901072857 23 345 0.0 0.0 0.00 0.00 0.00 94 1014.8
20260901072357 23 344 0.0 0.0 0.00 0.00 0.00 94 1014.8
20260901071852 23 345 0.0 1.6 0.00 0.00 0.00 94 1014.8
20260901071351 23 355 0.0 0.0 0.00 0.00 0.00 94 1014.7
20260901070850 23 355 0.0 0.0 0.00 0.00 0.00 93 1014.8
20260901070346 23 354 0.0 0.0 0.00 0.00 0.00 93 1014.7
20260901065844 23 355 0.0 0.0 0.00 0.00 0.00 93 1014.6
20260901065339 23 357 0.0 0.0 0.00 0.00 0.00 94 1014.7
20260901064835 23 338 0.0 0.0 0.00 0.00 0.00 94 1014.7
20260901064331 23 338 0.0 0.0 0.00 0.00 0.00 94 1014.7
20260901063829 23 345 0.0 0.0 0.00 0.00 0.00 93 1014.9
20260901063325 24 345 0.0 0.0 0.00 0.00 0.00 92 1015.1
20260901062821 24 345 0.0 0.0 0.00 0.00 0.00 91 1014.9
20260901062317 25 337 0.0 0.0 0.00 0.00 0.00 91 1014.8
20260901061812 25 338 0.0 0.0 0.00 0.00 0.00 91 1014.8
20260901061312 24 345 1.6 1.6 0.00 0.00 0.00 91 1015.0
20260901060808 24 349 0.0 0.0 0.00 0.00 0.00 92 1014.9
20260901060303 25 346 0.0 0.0 0.00 0.00 0.00 91 1014.8
20260901055758 25 336 0.0 0.0 0.00 0.00 0.00 91 1014.9
20260901055254 25 341 0.0 0.0 0.00 0.00 0.00 90 1014.9
20260901054751 25 334 0.0 0.0 0.00 0.00 0.00 91 1014.9
20260901054247 25 335 0.0 1.6 0.00 0.00 0.00 91 1014.9
20260901053743 25 333 0.0 1.6 0.00 0.00 0.00 91 1014.8
20260901053243 25 339 0.0 0.0 0.00 0.00 0.00 91 1014.8
20260901052739 25 348 0.0 0.0 0.00 0.00 0.00 90 1014.6
20260901052234 25 341 0.0 0.0 0.00 0.00 0.00 90 1014.6
20260901051733 25 341 1.6 1.6 0.00 0.00 0.00 91 1014.3
20260901051228 24 337 0.0 1.6 0.00 0.00 0.00 93 1014.5
20260901050724 24 351 0.0 0.0 0.00 0.00 0.00 93 1014.6
20260901050219 24 351 0.0 0.0 0.00 0.00 0.00 92 1014.4
20260901045714 25 351 0.0 0.0 0.00 0.00 0.00 92 1014.5
20260901045209 25 347 0.0 0.0 0.00 0.00 0.00 91 1014.5
20260901044704 25 340 1.6 1.6 0.00 0.00 0.00 90 1014.5
20260901044200 25 345 0.0 0.0 0.00 0.00 0.00 88 1014.6
20260901043655 25 333 0.0 0.0 0.00 0.00 0.00 87 1014.5
20260901043151 26 338 0.0 0.0 0.00 0.00 0.00 87 1014.4
20260901042650 25 303 1.6 1.6 0.00 0.00 0.00 87 1014.3
20260901042145 25 330 1.6 1.6 0.00 0.00 0.00 87 1014.2
20260901041641 26 340 0.0 0.0 0.00 0.00 0.00 87 1014.3
20260901041136 26 334 3.2 4.8 0.00 0.00 0.00 87 1014.1
20260901040636 26 289 3.2 4.8 0.00 0.00 0.00 87 1014.3
20260901040135 26 328 3.2 3.2 0.00 0.00 0.00 86 1014.3
20260901035633 26 265 3.2 3.2 0.00 0.00 0.00 86 1014.3
20260901035132 26 284 3.2 4.8 0.00 0.00 0.00 86 1014.4
20260901034627 26 337 0.0 1.6 0.00 0.00 0.00 86 1014.6
20260901034126 26 353 0.0 1.6 0.00 0.00 0.00 86 1014.5
20260901033621 26 277 3.2 3.2 0.00 0.00 0.00 86 1014.3
20260901033120 26 328 1.6 1.6 0.00 0.00 0.00 86 1014.4
20260901032619 26 314 3.2 3.2 0.00 0.00 0.00 86 1014.7
20260901032114 26 341 0.0 0.0 0.00 0.00 0.00 89 1014.6
20260901031610 26 325 1.6 1.6 0.00 0.00 0.00 89 1014.7
20260901031106 26 328 0.0 1.6 0.00 0.00 0.00 90 1014.8
20260901030605 26 4 0.0 1.6 0.00 0.00 0.00 90 1014.5
20260901030100 25 349 0.0 0.0 0.00 0.00 0.00 90 1014.5
20260901025559 26 349 1.6 1.6 0.00 0.00 0.00 90 1014.8
20260901025054 26 349 0.0 0.0 0.00 0.00 0.00 89 1014.6
20260901024549 26 348 0.0 0.0 0.00 0.00 0.00 89 1014.5
20260901024047 26 343 0.0 0.0 0.00 0.00 0.00 89 1014.6
20260901023546 26 343 0.0 0.0 0.00 0.00 0.00 89 1014.5
20260901023042 26 343 0.0 0.0 0.00 0.00 0.00 88 1014.6
20260901022537 26 343 0.0 1.6 0.00 0.00 0.00 87 1014.5
20260901022032 27 343 0.0 0.0 0.00 0.00 0.00 85 1014.3
20260901021528 27 344 0.0 0.0 0.00 0.00 0.00 84 1014.4
20260901021023 27 345 0.0 0.0 0.00 0.00 0.00 83 1014.5
20260901020518 27 338 0.0 1.6 0.00 0.00 0.00 83 1014.5
20260901020014 27 332 0.0 0.0 0.00 0.00 0.00 83 1014.5
20260901015509 27 333 1.6 1.6 0.00 0.00 0.00 82 1014.5
20260901015008 27 345 0.0 0.0 0.00 0.00 0.00 82 1014.5
20260901014504 27 327 1.6 1.6 0.00 0.00 0.00 82 1014.3
20260901014000 27 341 0.0 0.0 0.00 0.00 0.00 81 1014.5
20260901013455 28 339 0.0 0.0 0.00 0.00 0.00 81 1014.2
20260901012951 28 311 1.6 3.2 0.00 0.00 0.00 80 1014.0
20260901012450 28 297 1.6 3.2 0.00 0.00 0.00 79 1014.0
20260901011946 28 320 1.6 1.6 0.00 0.00 0.00 78 1014.0
20260901011442 28 331 1.6 1.6 0.00 0.00 0.00 78 1013.7
20260901010940 28 292 1.6 3.2 0.00 0.00 0.00 78 1013.9
20260901010435 28 333 1.6 1.6 0.00 0.00 0.00 77 1014.0
20260901005934 28 337 1.6 3.2 0.00 0.00 0.00 77 1013.7
20260901005429 29 343 0.0 1.6 0.00 0.00 0.00 76 1014.0
20260901004924 29 332 0.0 0.0 0.00 0.00 0.00 76 1013.7
20260901004424 29 319 1.6 1.6 0.00 0.00 0.00 75 1014.1
20260901003919 29 293 3.2 4.8 0.00 0.00 0.00 75 1013.7
20260901003414 29 298 3.2 4.8 0.00 0.00 0.00 75 1013.9
20260901002912 30 334 3.2 3.2 0.00 0.00 0.00 74 1013.7
20260901002407 30 243 3.2 4.8 0.00 0.00 0.00 74 1013.6
20260901001907 30 237 4.8 6.4 0.00 0.00 0.00 73 1013.4
20260901001402 30 258 3.2 3.2 0.00 0.00 0.00 73 1013.5
20260901000857 30 299 0.0 1.6 0.00 0.00 0.00 72 1013.5
20260901000352 30 248 6.4 9.7 0.00 0.00 0.00 72 1013.4
20260831235851 30 333 3.2 3.2 0.00 0.00 0.00 71 1013.5
20260831235347 30 257 9.7 11.3 0.00 0.00 0.00 71 1013.7
20260831234842 30 249 4.8 6.4 0.00 0.00 0.00 70 1013.6
20260831234342 31 281 4.8 4.8 0.00 0.00 0.00 70 1013.5
20260831233837 31 253 6.4 6.4 0.00 0.00 0.00 69 1013.6
20260831233332 31 278 4.8 4.8 0.00 0.00 0.00 69 1013.4
20260831232828 31 265 6.4 11.3 0.00 0.00 0.00 69 1013.5
20260831232324 31 311 6.4 12.9 0.00 0.00 0.00 69 1013.4
20260831231820 31 253 6.4 6.4 0.00 0.00 0.00 68 1013.5
20260831231316 31 219 6.4 9.7 0.00 0.00 0.00 68 1013.4
20260831230811 31 295 6.4 6.4 0.00 0.00 0.00 70 1013.3
20260831230306 31 284 6.4 9.7 0.00 0.00 0.00 69 1013.3
20260831225805 31 313 4.8 6.4 0.00 0.00 0.00 68 1013.2
20260831225301 32 329 4.8 4.8 0.00 0.00 0.00 67 1013.2
20260831224756 32 278 4.8 6.4 0.00 0.00 0.00 65 1013.2
20260831224251 32 273 3.2 4.8 0.00 0.00 0.00 65 1012.9
20260831223746 32 191 9.7 11.3 0.00 0.00 0.00 65 1013.0
20260831223242 32 212 6.4 6.4 0.00 0.00 0.00 64 1013.2
20260831222738 32 279 6.4 6.4 0.00 0.00 0.00 64 1013.1
20260831222234 32 258 6.4 6.4 0.00 0.00 0.00 65 1012.9
20260831221729 32 264 3.2 4.8 0.00 0.00 0.00 65 1012.9
20260831221224 32 304 3.2 6.4 0.00 0.00 0.00 64 1012.8
20260831220719 32 203 8.0 9.7 0.00 0.00 0.00 65 1012.7
20260831220214 31 186 6.4 9.7 0.00 0.00 0.00 66 1012.9
20260831215709 32 236 6.4 9.7 0.00 0.00 0.00 65 1013.3
20260831215205 32 55 3.2 4.8 0.00 0.00 0.00 65 1013.4
20260831214702 32 221 8.0 11.3 0.00 0.00 0.00 65 1013.4
20260831214159 32 253 8.0 9.7 0.00 0.00 0.00 65 1013.4
20260831213654 31 325 6.4 9.7 0.00 0.00 0.00 64 1013.4
20260831213150 32 238 12.9 12.9 0.00 0.00 0.00 64 1013.3
20260831212646 32 263 9.7 14.5 0.00 0.00 0.00 63 1013.3
20260831212143 32 310 11.3 12.9 0.00 0.00 0.00 62 1013.3
20260831211641 32 275 8.0 11.3 0.00 0.00 0.00 63 1013.2
20260831211141 32 236 9.7 12.9 0.00 0.00 0.00 63 1013.3
20260831210636 33 240 9.7 12.9 0.00 0.00 0.00 61 1013.3
20260831210132 32 206 8.0 9.7 0.00 0.00 0.00 63 1013.1
20260831205631 31 184 6.4 9.7 0.00 0.00 0.00 64 1013.5
20260831205127 32 255 8.0 11.3 0.00 0.00 0.00 63 1013.5
20260831204627 32 241 11.3 12.9 0.00 0.00 0.00 62 1013.5
20260831204126 32 336 8.0 9.7 0.00 0.00 0.00 62 1013.4
20260831203620 32 204 9.7 11.3 0.00 0.00 0.00 60 1013.3
20260831203120 32 230 6.4 6.4 0.00 0.00 0.00 60 1013.3
20260831202619 32 221 4.8 4.8 0.00 0.00 0.00 61 1013.3
20260831202119 32 270 6.4 11.3 0.00 0.00 0.00 61 1013.2
20260831201618 32 291 3.2 4.8 0.00 0.00 0.00 60 1013.5
20260831201114 32 240 9.7 12.9 0.00 0.00 0.00 61 1013.5
20260831200610 32 261 8.0 9.7 0.00 0.00 0.00 61 1013.4
20260831200109 32 280 6.4 9.7 0.00 0.00 0.00 59 1013.4
20260831195605 32 222 9.7 11.3 0.00 0.00 0.00 58 1013.3
20260831195100 32 246 8.0 9.7 0.00 0.00 0.00 61 1013.6
20260831194555 32 297 4.8 4.8 0.00 0.00 0.00 59 1013.5
20260831194049 32 348 6.4 6.4 0.00 0.00 0.00 60 1013.4
20260831193546 32 321 1.6 1.6 0.00 0.00 0.00 59 1013.6
20260831193045 31 270 6.4 6.4 0.00 0.00 0.00 62 1013.5
20260831192540 32 287 6.4 6.4 0.00 0.00 0.00 61 1013.3
20260831192035 32 257 8.0 11.3 0.00 0.00 0.00 61 1013.4
20260831191531 32 265 3.2 4.8 0.00 0.00 0.00 60 1013.3
20260831191027 31 237 6.4 6.4 0.00 0.00 0.00 60 1013.5
20260831190522 31 347 6.4 9.7 0.00 0.00 0.00 61 1013.2
20260831190021 32 285 12.9 16.1 0.00 0.00 0.00 61 1013.3
20260831185517 32 260 3.2 4.8 0.00 0.00 0.00 60 1013.3
20260831185012 31 266 6.4 6.4 0.00 0.00 0.00 61 1013.3
20260831184507 31 247 9.7 11.3 0.00 0.00 0.00 63 1013.3
20260831184002 31 329 4.8 4.8 0.00 0.00 0.00 61 1013.5
20260831183501 31 327 6.4 9.7 0.00 0.00 0.00 60 1013.5
20260831183001 31 313 4.8 4.8 0.00 0.00 0.00 61 1013.4
20260831182456 31 264 9.7 11.3 0.00 0.00 0.00 59 1013.5
20260831181951 30 294 3.2 4.8 0.00 0.00 0.00 62 1013.6
20260831181446 31 262 11.3 12.9 0.00 0.00 0.00 62 1013.6
20260831180941 31 276 9.7 9.7 0.00 0.00 0.00 62 1013.9
20260831180435 30 263 6.4 11.3 0.00 0.00 0.00 61 1014.1
20260831175934 30 341 6.4 6.4 0.00 0.00 0.00 62 1014.2
20260831175431 30 330 3.2 4.8 0.00 0.00 0.00 63 1013.7
20260831174926 31 295 4.8 4.8 0.00 0.00 0.00 60 1014.0
20260831174422 30 312 3.2 4.8 0.00 0.00 0.00 63 1014.0
20260831173921 30 285 8.0 9.7 0.00 0.00 0.00 64 1013.6
20260831173420 30 269 8.0 9.7 0.00 0.00 0.00 64 1013.7
20260831172916 30 269 4.8 4.8 0.00 0.00 0.00 63 1013.6
20260831172412 30 267 4.8 4.8 0.00 0.00 0.00 62 1013.7
20260831171911 30 254 6.4 9.7 0.00 0.00 0.00 60 1013.6
20260831171408 31 306 6.4 6.4 0.00 0.00 0.00 60 1013.9
20260831170904 30 242 3.2 4.8 0.00 0.00 0.00 61 1014.0
20260831170400 30 293 4.8 4.8 0.00 0.00 0.00 64 1014.0
20260831165856 29 210 4.8 6.4 0.00 0.00 0.00 64 1014.1
20260831165352 30 305 9.7 12.9 0.00 0.00 0.00 64 1014.0
20260831164848 29 347 6.4 11.3 0.00 0.00 0.00 64 1014.3
20260831164344 30 242 8.0 12.9 0.00 0.00 0.00 63 1014.2
20260831163840 29 272 9.7 12.9 0.00 0.00 0.00 65 1014.3
20260831163335 29 252 4.8 9.7 0.00 0.00 0.00 64 1014.1
20260831162833 29 312 6.4 9.7 0.00 0.00 0.00 65 1014.1
20260831162329 29 252 8.0 11.3 0.00 0.00 0.00 66 1014.2
20260831161828 29 277 6.4 6.4 0.00 0.00 0.00 66 1014.0
20260831161324 28 283 6.4 6.4 0.00 0.00 0.00 66 1014.0
20260831160819 28 256 4.8 4.8 0.00 0.00 0.00 65 1014.1
20260831160314 28 341 4.8 6.4 0.00 0.00 0.00 66 1014.1
20260831155814 28 259 6.4 6.4 0.00 0.00 0.00 66 1014.0
20260831155309 28 336 1.6 1.6 0.00 0.00 0.00 66 1014.1
20260831154805 28 275 6.4 9.7 0.00 0.00 0.00 66 1013.9
20260831154301 28 302 9.7 11.3 0.00 0.00 0.00 66 1013.6
20260831153759 28 274 11.3 14.5 0.00 0.00 0.00 66 1013.7
20260831153255 28 189 8.0 12.9 0.00 0.00 0.00 67 1013.7
20260831152751 28 202 14.5 16.1 0.00 0.00 0.00 66 1014.0
20260831152247 28 277 6.4 9.7 0.00 0.00 0.00 65 1013.6
20260831151741 28 224 12.9 16.1 0.00 0.00 0.00 65 1013.4
20260831151241 28 238 12.9 16.1 0.00 0.00 0.00 65 1013.3
20260831150736 28 281 9.7 9.7 0.00 0.00 0.00 65 1013.3
20260831150231 28 246 14.5 16.1 0.00 0.00 0.00 66 1013.2
20260831145730 28 252 12.9 16.1 0.00 0.00 0.00 66 1013.1
20260831145227 28 277 12.9 20.9 0.00 0.00 0.00 66 1013.1
20260831144722 28 207 9.7 14.5 0.00 0.00 0.00 66 1013.1
20260831144219 28 270 6.4 6.4 0.00 0.00 0.00 66 1013.1
20260831143717 27 281 8.0 9.7 0.00 0.00 0.00 67 1013.1
20260831143213 27 309 12.9 17.7 0.00 0.00 0.00 68 1013.0
20260831142709 27 264 11.3 14.5 0.00 0.00 0.00 69 1013.1
20260831142204 27 243 9.7 12.9 0.00 0.00 0.00 68 1013.0
20260831141703 27 285 6.4 9.7 0.00 0.00 0.00 70 1013.1
20260831141158 27 261 6.4 9.7 0.00 0.00 0.00 70 1012.8
20260831140658 26 213 11.3 16.1 0.00 0.00 0.00 70 1012.7
20260831140153 26 273 12.9 14.5 0.00 0.00 0.00 71 1013.1
20260831135650 26 230 6.4 11.3 0.00 0.00 0.00 72 1013.0
20260831135146 26 263 8.0 11.3 0.00 0.00 0.00 73 1012.9
20260831134642 26 242 12.9 16.1 0.00 0.00 0.00 73 1012.8
20260831134138 26 336 8.0 11.3 0.00 0.00 0.00 73 1012.8
20260831133636 25 220 9.7 11.3 0.00 0.00 0.00 74 1013.0
20260831133131 25 265 4.8 6.4 0.00 0.00 0.00 74 1013.0
20260831132627 25 242 8.0 11.3 0.00 0.00 0.00 74 1013.0
20260831132126 25 224 6.4 6.4 0.00 0.00 0.00 75 1013.1
20260831131621 25 273 8.0 9.7 0.00 0.00 0.00 76 1013.0
20260831131118 25 245 3.2 3.2 0.00 0.00 0.00 75 1012.6
20260831130613 25 256 9.7 11.3 0.00 0.00 0.00 75 1012.9
20260831130109 25 255 8.0 11.3 0.00 0.00 0.00 75 1012.8
20260831125606 25 252 4.8 6.4 0.00 0.00 0.00 75 1012.8
20260831125102 25 257 6.4 6.4 0.00 0.00 0.00 76 1012.9
20260831124559 24 328 3.2 3.2 0.00 0.00 0.00 76 1012.9
20260831124054 24 268 4.8 4.8 0.00 0.00 0.00 76 1012.7
20260831123553 24 313 4.8 6.4 0.00 0.00 0.00 77 1012.8
20260831123048 23 246 4.8 4.8 0.00 0.00 0.00 77 1012.8
20260831122548 23 260 3.2 4.8 0.00 0.00 0.00 77 1012.6
20260831122044 23 320 3.2 3.2 0.00 0.00 0.00 78 1012.7
20260831121538 23 335 1.6 3.2 0.00 0.00 0.00 78 1012.6
20260831121034 23 238 4.8 4.8 0.00 0.00 0.00 78 1012.7
20260831120533 23 308 1.6 3.2 0.00 0.00 0.00 79 1012.5
20260831120029 23 341 0.0 1.6 0.00 0.00 0.00 79 1012.5
20260831115525 23 260 3.2 4.8 0.00 0.00 0.00 78 1012.3
20260831115021 23 338 3.2 3.2 0.00 0.00 0.00 79 1012.4
20260831114519 23 340 3.2 3.2 0.00 0.00 0.00 79 1012.5
20260831114014 23 352 3.2 3.2 0.00 0.00 0.00 79 1012.3
20260831113513 23 293 3.2 3.2 0.00 0.00 0.00 79 1012.4
20260831113010 23 285 1.6 3.2 0.00 0.00 0.00 79 1012.3
20260831112503 23 203 4.8 4.8 0.00 0.00 0.00 79 1012.4
20260831111958 23 255 3.2 4.8 0.00 0.00 0.00 79 1012.5
20260831111454 23 347 1.6 3.2 0.00 0.00 0.00 79 1012.5
20260831110949 23 208 4.8 4.8 0.00 0.00 0.00 80 1012.4
20260831110444 23 325 3.2 4.8 0.00 0.00 0.00 79 1012.6
20260831105943 23 252 4.8 4.8 0.00 0.00 0.00 80 1012.8
20260831105439 23 267 1.6 3.2 0.00 0.00 0.00 79 1012.6
20260831104939 23 283 3.2 3.2 0.00 0.00 0.00 79 1012.6
20260831104435 23 218 4.8 4.8 0.00 0.00 0.00 79 1012.6
20260831103931 23 251 3.2 3.2 0.00 0.00 0.00 79 1012.7
20260831103426 23 349 3.2 3.2 0.00 0.00 0.00 79 1012.7
20260831102921 23 289 3.2 4.8 0.00 0.00 0.00 79 1012.8
20260831102416 23 252 3.2 3.2 0.00 0.00 0.00 79 1012.8
20260831101911 23 308 1.6 1.6 0.00 0.00 0.00 79 1012.8
20260831101406 23 289 3.2 3.2 0.00 0.00 0.00 79 1012.8
20260831100903 23 276 3.2 3.2 0.00 0.00 0.00 79 1012.7
20260831100358 23 207 3.2 3.2 0.00 0.00 0.00 79 1012.9
20260831095858 23 298 3.2 3.2 0.00 0.00 0.00 79 1012.8
20260831095357 23 225 6.4 6.4 0.00 0.00 0.00 79 1012.9
20260831094853 23 294 3.2 4.8 0.00 0.00 0.00 79 1012.9
20260831094348 23 341 3.2 4.8 0.00 0.00 0.00 79 1012.8
20260831093844 23 231 4.8 4.8 0.00 0.00 0.00 79 1013.0
20260831093339 23 312 3.2 3.2 0.00 0.00 0.00 79 1013.0
20260831092836 23 315 3.2 3.2 0.00 0.00 0.00 79 1012.9
20260831092331 23 306 3.2 3.2 0.00 0.00 0.00 79 1012.9
20260831091825 23 287 1.6 3.2 0.00 0.00 0.00 79 1013.0
20260831091316 23 308 3.2 3.2 0.00 0.00 0.00 79 1013.0
20260831090811 23 219 3.2 3.2 0.00 0.00 0.00 79 1013.1
20260831090306 23 205 4.8 4.8 0.00 0.00 0.00 79 1013.1
20260831085802 23 221 3.2 4.8 0.00 0.00 0.00 79 1013.2
20260831085252 23 340 3.2 4.8 0.00 0.00 0.00 78 1013.1
20260831084746 23 222 6.4 6.4 0.00 0.00 0.00 78 1012.9
20260831084243 23 234 4.8 6.4 0.00 0.00 0.00 79 1012.9